Weather in Abramovka

Russia / Primorsky Krai     44°05′28″N   132°01′44″E
temp.,
°C
wind,
m/s
gust,
m/s
humid.,
%
clouds,
%
prec.,
mm/h
press.,
hPa
HPBL,
m
17 april, sat
sat1701:00+6s5118710 0.0 1010301
04:00+5ssw4109032 0.0 1010242
07:00+4s36910 0.0 1011128
10:00+9ssw34580 0.0 1013534
13:00+13w47245 0.0 10122941
16:00+14w472136 0.0 10102923
19:00+13ssw3431100 0.0 1009179
22:00+9ene2250100 0.0 101125
18 april, sun
sun1801:00+8nne465264 0.0 1010104
04:00+6n510589 0.0 1010230
07:00+5n5117611 0.0 1010300
10:00+10n7105689 0.0 10101404
13:00+11n8124887 0.0 10081932
16:00+14n8124212 0.0 10062098
19:00+13n6104340 0.0 10051157
22:00+9n22595 0.0 100632
19 april, mon
mon1901:00+8wnw365858 0.0 100686
04:00+7w33605 0.0 100547
07:00+6wsw11620 0.0 100514
10:00+13wnw24395 0.0 1004506
13:00+18nw47236 0.0 10022104
16:00+21nw69185 0.0 10013247
19:00+20wnw5102537 0.0 1001408
22:00+16nw915371 0.0 1004793
20 april, tue
tue2001:00+10nnw8133840 0.0 10101347
04:00+6n59350 0.0 1013410
07:00+4wnw38370 0.0 1014331
10:00+9wnw919190 0.0 10142121
13:00+13wnw1219150 0.0 10132946
16:00+15nw914130 0.0 10132851
19:00+15nw610170 0.0 1014672
22:00+12wnw612230 0.0 1017321
21 april, wed
wed2101:00+9wnw33290 0.0 101930
04:00+7wsw22330 0.0 102017
07:00+7wsw22365 0.0 102111
10:00+13sw22260 0.0 1021344
13:00+19sw34190 0.0 10201112
16:00+23wnw26150 0.0 10172680
19:00+22nne22220 0.0 101724
22:00+14sse36325 0.0 1019119